Weather History for Hailey, ID

Change the Weather History Date:

Wednesday, December 5, 2012

  Actual Average Record
Temperature  
Mean Temperature 40 °F -  
Max Temperature 48 °F 34 °F 48 °F (2012)
Min Temperature 32 °F 16 °F -5 °F (1996)
Degree Days  
Heating Degree Days 25    
Moisture  
Dew Point 34 °F    
Average Humidity 94    
Maximum Humidity 100    
Minimum Humidity 57    
Precipitation  
Precipitation 0.00 in - - ()
Sea Level Pressure  
Sea Level Pressure 30.07 in    
Wind  
Wind Speed 5 mph (NW)    
Max Wind Speed 12 mph    
Max Gust Speed -    
Visibility 7 miles    
Events Rain    
Averages and records for this station are not official NWS values.
T = Trace of Precipitation, MM = Missing Value Source: NWS Daily Summary

Daily Weather History Graph

Daily Weather History Graph

Search for Another Location

Airport:

Trip Planner

Search our weather history database for the weather conditions in past years. The results will help you decide how hot, cold, wet, or windy it might be!

Date:

Astronomy

Dec. 05, 2012 Rise Set
Actual Time 7:55 AM MST 5:00 PM MST
Civil Twilight 7:22 AM MST 5:33 PM MST
Nautical Twilight 6:46 AM MST 6:09 PM MST
Astronomical Twilight 6:12 AM MST 6:43 PM MST
Moon No Moon Rise 12:12 PM MST (12/5)
Length of Visible Light 10h 10m
Length of Day
9h 05m
Waning Gibbous, 59% of the Moon is Illuminated
Dec 5
Waning Gibbous
Dec 6
Last Quarter
Dec 13
New
Dec 19
First Quarter
Dec 28
Full

Hourly Weather History & Observations

Time (MST) Temp. Windchill Dew Point Humidity Pressure Visibility Wind Dir Wind Speed Gust Speed Precip Events Conditions
12:15 AM 33.8 °F 28.6 °F 33.8 °F 100% 30.12 in 5.0 mi NW 5.8 mph - N/A   Overcast
12:35 AM 33.8 °F 29.6 °F 33.8 °F 100% 30.12 in 4.0 mi NW 4.6 mph - N/A   Overcast
12:55 AM 33.8 °F 29.6 °F 33.8 °F 100% 30.12 in 5.0 mi NW 4.6 mph - N/A   Overcast
1:15 AM 33.8 °F 28.6 °F 33.8 °F 100% 30.11 in 7.0 mi NW 5.8 mph - N/A   Overcast
1:35 AM 33.8 °F 28.6 °F 33.8 °F 100% 30.10 in 10.0 mi NW 5.8 mph - N/A   Overcast
1:55 AM 33.8 °F 28.6 °F 33.8 °F 100% 30.09 in 10.0 mi NW 5.8 mph - N/A   Overcast
2:15 AM 33.8 °F 29.6 °F 33.8 °F 100% 30.09 in 5.0 mi NNW 4.6 mph - N/A   Overcast
2:35 AM 33.8 °F 28.6 °F 33.8 °F 100% 30.09 in 5.0 mi NW 5.8 mph - N/A   Overcast
2:55 AM 33.8 °F 28.6 °F 33.8 °F 100% 30.09 in 1.5 mi NNW 5.8 mph - N/A   Overcast
3:15 AM 33.8 °F 30.8 °F 33.8 °F 100% 30.08 in 1.2 mi NW 3.5 mph - N/A   Light Drizzle
3:35 AM 33.8 °F 30.8 °F 33.8 °F 100% 30.07 in 2.5 mi North 3.5 mph - N/A   Overcast
3:55 AM 33.8 °F - 33.8 °F 100% 30.07 in 2.0 mi Calm Calm - N/A   Overcast
4:15 AM 33.8 °F - 33.8 °F 100% 30.06 in 2.0 mi Calm Calm - N/A   Overcast
4:35 AM 33.8 °F 30.8 °F 33.8 °F 100% 30.05 in 3.0 mi NNW 3.5 mph - N/A   Drizzle
4:55 AM 33.8 °F 30.8 °F 33.8 °F 100% 30.04 in 3.0 mi NW 3.5 mph - N/A   Overcast
5:15 AM 33.8 °F - 33.8 °F 100% 30.04 in 2.5 mi Calm Calm - N/A   Overcast
5:35 AM 33.8 °F - 33.8 °F 100% 30.04 in 4.0 mi Calm Calm - N/A   Overcast
5:55 AM 33.8 °F - 33.8 °F 100% 30.04 in 4.0 mi Calm Calm - N/A   Overcast
7:47 AM 35.6 °F - 35.6 °F 100% 30.04 in 7.0 mi Calm Calm - N/A Rain Light Rain
8:45 AM 35.6 °F - 35.6 °F 100% 30.05 in 7.0 mi Calm Calm - N/A   Overcast
9:47 AM 35.6 °F - 35.6 °F 100% 30.06 in 7.0 mi Calm Calm - N/A   Overcast
10:25 AM 35.6 °F - 35.6 °F 100% 30.07 in 3.0 mi Calm Calm - N/A   Overcast
10:47 AM 37.4 °F - 37.4 °F 100% 30.07 in 2.0 mi Calm Calm - N/A   Overcast
11:50 AM 39.2 °F 35.0 °F 39.2 °F 100% 30.05 in 7.0 mi SE 5.8 mph - N/A   Mostly Cloudy
12:17 PM 42.8 °F 40.1 °F 41.0 °F 93% 30.04 in 7.0 mi ESE 4.6 mph - N/A   Mostly Cloudy
12:50 PM 44.6 °F - 41.0 °F 87% 30.03 in 7.0 mi Calm Calm - N/A   Mostly Cloudy
1:47 PM 46.4 °F - 41.0 °F 81% 30.03 in 10.0 mi Calm Calm - N/A   Scattered Clouds
2:47 PM 48.2 °F - 33.8 °F 58% 30.02 in 10.0 mi Calm Calm - N/A   Scattered Clouds
3:50 PM 46.4 °F 42.4 °F 33.8 °F 62% 30.03 in 10.0 mi WNW 8.1 mph - N/A   Scattered Clouds
4:55 PM 44.6 °F 40.7 °F 30.2 °F 57% 30.04 in 10.0 mi West 6.9 mph - N/A   Scattered Clouds
5:47 PM 39.2 °F 32.5 °F 33.8 °F 81% 30.04 in 10.0 mi NNW 10.4 mph - N/A   Partly Cloudy
6:47 PM 35.6 °F 27.5 °F 33.8 °F 93% 30.06 in 10.0 mi NW 11.5 mph - N/A   Clear
7:47 PM 33.8 °F 27.7 °F 32.0 °F 93% 30.06 in 10.0 mi WNW 6.9 mph - N/A   Clear
8:47 PM 33.8 °F 25.8 °F 32.0 °F 93% 30.06 in 10.0 mi NNW 10.4 mph - N/A   Clear
10:15 PM 32.0 °F 23.0 °F 32.0 °F 100% 30.08 in 10.0 mi NNW 11.5 mph - N/A   Clear
10:35 PM 32.0 °F 23.0 °F 30.2 °F 93% 30.09 in 10.0 mi North 11.5 mph - N/A   Clear
10:47 PM 33.8 °F 26.4 °F 30.2 °F 87% 30.09 in 10.0 mi NNW 9.2 mph - N/A   Clear
10:55 PM 32.0 °F 24.2 °F 30.2 °F 93% 30.09 in 10.0 mi North 9.2 mph - N/A   Clear
11:15 PM 32.0 °F 24.8 °F 30.2 °F 93% 30.09 in 10.0 mi NW 8.1 mph - N/A   Clear
11:35 PM 32.0 °F 23.0 °F 30.2 °F 93% 30.09 in 10.0 mi NNW 11.5 mph - N/A   Clear
11:55 PM 32.0 °F 23.6 °F 28.4 °F 87% 30.09 in 10.0 mi NW 10.4 mph - N/A   Clear